Location: Allonne
(49.4086°N, 2.1143°E)
Time: 17:48:13
(UTC+00:00)

Cosmos 1461 - Pass Details

Date: 03 February 2023
Orbit: 492 x 644 km, 65.0° (Epoch: 25 March)

Event Time Altitude Azimuth Distance (km) Brightness Sun altitude
Rises 19:10:50 0° 231° (SW) 2,764 7.2 -23.0°
Reaches altitude 10° 19:13:02 10° 236° (SW) 1,897 6.3 -23.3°
Maximum altitude 19:17:15 55° 315° (NW) 732 3.6 -24.0°
Enters shadow 19:18:16 44° 1° (N) 851 3.7 -24.2°
